Location: Boiro
(42.6475°N, 8.8834°W)
Time: 21:29:57
(UTC+01:00)

NOAA 19 - Visible Passes

Search period start: 19 January 2022 00:00
Search period end: 29 January 2022 00:00
Orbit: 841 x 860 km, 99.2° (Epoch: 19 January)

Date Brightness Start Highest point End Pass type
(mag) Time Alt. Az. Time Alt. Az. Time Alt. Az.
19 Jan 6.5 18:57:25 10° E 19:01:06 18° ENE 19:04:46 10° NNE visible
19 Jan 5.5 20:35:38 10° S 20:41:09 70° WSW 20:46:43 10° NNW visible
20 Jan 5.2 20:23:46 10° SSE 20:29:19 88° WSW 20:34:55 10° NNW visible
20 Jan 8.2 22:08:54 10° WSW 22:10:43 12° W 22:12:32 10° WNW visible
21 Jan 5.1 20:11:59 10° SSE 20:17:31 75° ENE 20:23:05 10° N visible
21 Jan 7.9 21:55:36 10° SW 21:58:43 15° W 22:01:52 10° NW visible
22 Jan 5.2 20:00:18 10° SSE 20:05:44 59° ENE 20:11:12 10° N visible
22 Jan 7.6 21:42:51 10° SW 21:46:45 20° W 21:50:42 10° NW visible
23 Jan 8.0 08:22:12 10° NE 08:26:33 23° E 08:30:49 10° SE visible
23 Jan 5.4 19:48:41 10° SE 19:53:58 47° ENE 19:59:16 10° N visible
23 Jan 7.3 21:30:21 10° SSW 21:34:48 25° W 21:39:19 10° NW visible
24 Jan 8.1 08:10:52 10° NE 08:14:35 18° E 08:18:16 10° SE visible
24 Jan 5.7 19:37:10 10° SE 19:42:14 38° ENE 19:47:19 10° N visible
24 Jan 6.9 21:18:01 10° SSW 21:22:54 31° W 21:27:48 10° NW visible
25 Jan 8.3 07:59:48 10° ENE 08:02:37 14° E 08:05:24 10° ESE visible
25 Jan 6.0 19:25:44 10° SE 19:30:30 30° ENE 19:35:18 10° N visible
25 Jan 6.5 21:05:50 10° SSW 21:11:00 39° W 21:16:12 10° NNW visible
26 Jan 8.7 07:49:34 10° ENE 07:50:36 10° E 07:51:39 10° E visible
26 Jan 6.2 19:14:25 10° ESE 19:18:48 25° ENE 19:23:13 10° N visible
26 Jan 6.1 20:53:45 10° S 20:59:07 50° W 21:04:32 10° NNW visible
27 Jan 5.6 20:41:46 10° S 20:47:16 64° WSW 20:52:48 10° NNW visible
28 Jan 5.3 20:29:52 10° SSE 20:35:26 80° WSW 20:41:01 10° NNW visible
28 Jan 8.3 22:16:19 10° W 22:16:54 10° W 22:17:29 10° W visible
